www.pogodaiklimat.ru

Погода и климат >> Архив погоды >> Россия >> город Санкт-Петербург >> Санкт-Петербург


АРХИВ ПОГОДЫ в Санкт-Петербурге

Время (UTC), дата Ветер
(напр.,м/с)
 
Видим.   Явления Облачность Т
(С)
Тd
(С)
f
(%)
Тe
(С)
Тes
(С)
Комфортность P
(гПа)
Po
(гПа)
Тmin
(С)
Tmax
(С)
R
(мм)
R24
(мм)
S
(см)
06 20.06 З 2 10 км 10/0
[Ac As Cs]
+15.6 +8.9 64 +16 +19 по сезону 1003.2 1002.5 +13.4
09 20.06 ЮЗ 4 4000 м слабый дождь 10/10 300 м
[Frnb Ns]
+13.9 +8.5 70 +13 +13 прохладно 1001.8 1001.1
12 20.06 ЮВ 2 4000 м слабый дождь 10/9 300 м
[Sc As trans]
+13.8 +7.8 67 +13 +14 холодно 997.7 996.9
15 20.06 Ю 1 10 км {ливн. осадки} 9/9 600 м
[Sc]
+14.0 +11.1 83 +14 +15 прохладно 993.5 992.8 2
18 20.06 З 4
{11}
10 км {ливн. осадки} 10/10 300 м
[Sc]
+13.5 +10.4 82 +12 +12 холодно 992.8 992.1 +15.6 2
21 20.06 С 3
{10}
4000 м слабый ливневой дождь 10/10 300 м
[Cb calv]
+10.3 +9.0 92 +8 +8 очень
холодно
993.8 993.0
00 21.06 СЗ 2 10 км {ливн. осадки} 9/9 300 м
[Sc diur, vesp]
+10.1 +8.7 91 +9 +9 прохладно 995.1 994.4
03 21.06 СЗ 3 4000 м слабый ливневой дождь 10/10 300 м
[Cb calv]
+10.4 +9.0 91 +8 +8 холодно 995.4 994.7 +9.9 3
06 21.06 СЗ 3 10 км слабый дождь {ливн. осадки} 10/10 300 м
[Frnb Ns]
+11.5 +9.6 88 +10 +10 холодно 996.2 995.5 +9.9 5
09 21.06 З 3 10 км дождь 10/10 300 м
[Frnb Ns]
+10.9 +9.3 90 +9 +9 очень
холодно
997.6 996.8
12 21.06 СЗ 4
{12}
10 км {дождь} 10/10 540 м
[Sc diur, vesp]
+12.3 +8.9 80 +10 +10 очень
холодно
998.5 997.8
15 21.06 С 1
{11}
2000 м ливневой дождь 10/8 600 м
[Cb cap Ac As]
+10.6 +8.9 89 +10 +10 очень
холодно
999.8 999.1 5
18 21.06 З 2 10 км {ливн. осадки} 9/5 600 м
[Sc diur, vesp Ac trans Ci fib]
+12.0 +9.2 83 +11 +11 холодно 999.9 999.2 +15.0 8
21 21.06 СЗ 1 10 км 3/0
[Ci fib]
+11.1 +8.4 83 +11 +11 прохладно 1001.1 1000.3
00 22.06 С 2 10 км ясно +9.1 +7.4 89 +7 +7 холодно 1002.2 1001.4
03 22.06 10 км н/о +9.6 +7.4 86 +9 +10 холодно 1002.6 1001.9 +7.9 5
06 22.06 З 1 10 км 10/8 300 м
[Sc As op]
+12.1 +6.9 70 +12 +12 прохладно 1002.6 1001.9 +7.9
09 22.06 З 4 10 км 4/3 300 м
[Cu med, cong Ci ing]
+14.4 +8.5 68 +13 +19 холодно 1001.8 1001.1
12 22.06 З 2
{11}
10 км в посл. час ливневой дождь 8/4 300 м
[Cu med, cong Ac cuf Ci fib]
+14.9 +9.2 69 +15 +20 прохладно 1002.1 1001.4
15 22.06 СЗ 4
{10}
10 км 6/3 600 м
[Cu med, cong Ac trans Ci fib]
+15.6 +7.8 60 +15 +17 прохладно 1002.5 1001.7 2
18 22.06 З 3
{10}
10 км 8/4 600 м
[Sc diur, vesp Ac trans Ci fib]
+13.3 +7.3 67 +12 +12 холодно 1002.4 1001.7 +15.8 2
21 22.06 З 2 10 км 8/4 600 м
[Sc Ac trans Ci fib]
+12.5 +8.7 78 +12 +12 прохладно 1002.4 1001.7
00 23.06 З 1 10 км 9/8 300 м
[Sc Ac trans]
+11.5 +7.2 75 +11 +11 прохладно 1002.2 1001.5
03 23.06 С 1 10 км в посл. час ливневой дождь 8/4 300 м
[Cu med, cong Ac trans]
+10.4 +8.5 88 +10 +10 холодно 1002.4 1001.7 +10.3 0.5
06 23.06 С 2 10 км {ливн. осадки} 5/3 600 м
[Cu hum Ac As]
+13.5 +5.2 57 +13 +17 прохладно 1003.0 1002.3 +10.3 0.5
09 23.06 С 1 10 км {ливн. осадки} 5/4 300 м
[Sc diur, vesp Ac trans]
+15.7 +5.4 50 +17 +25 по сезону 1004.0 1003.3
12 23.06 З 4 10 км {ливн. осадки} 5/5 600 м
[Sc diur, vesp]
+15.5 +6.1 53 +15 +19 прохладно 1004.5 1003.8
15 23.06 СЗ 3 10 км 8/5 600 м
[Sc diur, vesp Ac trans]
+14.5 +6.9 60 +14 +15 прохладно 1005.4 1004.7
18 23.06 СЗ 2 10 км слабый ливневой дождь 9/8 300 м
[Cb calv Ac trans]
+13.1 +7.6 69 +12 +12 холодно 1006.0 1005.2 +16.2
21 23.06 З 2 10 км {ливн. осадки} 8/6 600 м
[Sc diur, vesp Ac trans]
+12.8 +8.2 74 +12 +12 прохладно 1006.2 1005.5
00 24.06 штиль 0 10 км {ливн. осадки} 5/0
[Ac trans]
+10.5 +8.1 85 +10 +10 прохладно 1006.2 1005.5
03 24.06 ЮЗ 2 10 км 3/3 300 м
[Cu hum Ac trans]
+12.0 +9.8 86 +11 +12 прохладно 1006.2 1005.5 +9.7
06 24.06 З 2 10 км 8/8 840 м
[Sc diur, vesp]
+14.0 +9.7 75 +14 +15 прохладно 1006.1 1005.4 +9.7
09 24.06 З 2 10 км 9/8 930 м
[Cu Sc Ac As]
+14.8 +7.2 60 +15 +16 прохладно 1005.9 1005.2
12 24.06 З 1 10 км 9/8 1000 м
[Sc diur, vesp Ac As]
+16.3 +4.3 45 +17 +19 прохладно 1005.0 1004.3
15 24.06 З 1 10 км 9/9 870 м
[Sc]
+16.8 +5.9 49 +18 +18 по сезону 1003.9 1003.2
18 24.06 ЮВ 1 10 км 8/5
[Sc Ac As Cc]
+16.7 +5.6 48 +18 +18 по сезону 1002.4 1001.7 +17.3
21 24.06 Ю 1 10 км 8/8 630 м
[Sc]
+15.6 +5.4 51 +16 +16 по сезону 1001.3 1000.6
00 25.06 Ю 1 10 км 8/0
[Ac As]
+14.8 +7.3 61 +15 +15 по сезону 999.9 999.2
03 25.06 Ю 1 4000 м слабый дождь {ливн. осадки} 10/10 300 м
[Frnb Ns]
+12.3 +10.4 88 +12 +12 прохладно 998.5 997.8 +12.2 2
06 25.06 ЮВ 1 4000 м слабый дождь {ливн. осадки} 10/10 300 м
[Frnb Ns]
+12.9 +11.3 90 +13 +13 прохладно 997.5 996.8 +11.8 5
09 25.06 З 2 10 км {дождь} 4/4 300 м
[Cu med, cong]
+17.5 +12.1 71 +18 +26 по сезону 997.7 997.0
12 25.06 ЮЗ 2 10 км {дождь} 5/3 600 м
[Cu hum Cc]
+19.6 +9.9 53 +21 +29 комфорт 998.2 997.5
15 25.06 ЮЗ 2 10 км {ливн. осадки, дождь} 6/4 600 м
[Sc diur, vesp Ac trans]
+16.3 +11.3 72 +16 +19 прохладно 998.9 998.2 3
18 25.06 З 1 10 км ливневой дождь 8/8 600 м
[Cb cap]
+14.4 +10.6 78 +15 +15 прохладно 999.6 998.9 +19.7 0.7
21 25.06 Ю 1 10 км {ливн. осадки} 5/0
[Ac As]
+12.8 +11.0 89 +13 +13 прохладно 998.8 998.1
00 26.06 ЮЗ 2 10 км {ливн. осадки} 6/0
[Ac As]
+13.8 +8.3 69 +13 +13 по сезону 998.2 997.5
03 26.06 ЮЗ 3 10 км 9/9 300 м
[Sc diur, vesp]
+13.4 +8.4 72 +12 +12 прохладно 997.4 996.7 +12.5 0.4
06 26.06 ЮЗ 3 10 км 9/9 840 м
[Sc diur, vesp]
+14.5 +10.1 75 +14 +14 прохладно 996.7 996.0 +12.5
09 26.06 ЮЗ 3 10 км 9/4 600 м
[Sc diur, vesp Ac trans]
+16.1 +8.5 61 +16 +19 прохладно 996.1 995.4
12 26.06 З 2 10 км слабый ливневой дождь 10/10 300 м
[Cb cap]
+12.7 +9.0 78 +12 +12 очень
холодно
996.6 995.9
15 26.06 ЮЗ 3 10 км {ливн. осадки} 9/3 600 м
[Sc diur, vesp Ac trans Ci fib]
+14.6 +9.8 73 +14 +15 холодно 996.0 995.2 3
18 26.06 ЮЗ 4 10 км {ливн. осадки} 9/3 600 м
[Sc diur, vesp Ac trans Ci fib]
+13.3 +7.8 69 +12 +12 холодно 995.6 994.9 +17.1 3
21 26.06 ЮЗ 3 10 км 5/3 600 м
[Sc diur, vesp Ac trans]
+11.7 +8.8 82 +10 +10 холодно 995.4 994.7
00 27.06 ЮЗ 3 10 км 9/9 480 м
[Sc diur, vesp]
+12.1 +9.3 83 +10 +10 прохладно 995.5 994.8

 

Местоположение метеостанции Санкт-Петербург (город Санкт-Петербург, Россия): широта 59.97 долгота 30.30 высота над уровнем моря 6 м.

В архиве по умолчанию представлена погода в Санкт-Петербурге за последнюю неделю. Архивные данные за месяц целиком и за предыдущие месяцы, начиная с января 2011 года, Вы можете получить, выбрав интересующий диапазон дат из раскрывающегося списка и нажав кнопку "Ввод!".

Внимание! Время в таблицах - всемирное. Для получения местного времени необходимо прибавить поправку, которая в Санкт-Петербурге равна 3 ч.

Смотрите также архив погоды в соседних городах и на ближайших метеорологических станциях:

Погода в Воейково (город Санкт-Петербург, Россия) (22 км)
Погода в Ломоносове (город Санкт-Петербург, Россия) (29 км)
Погода в Кронштадте (город Санкт-Петербург, Россия) (30 км)
Погода в Шлиссельбурге (Ленинградская область, Россия) (39 км)
Погода в Рощино (Ленинградская область, Россия) (48 км)
Погода в Шепелево (Ленинградская область, Россия) (58 км)
Погода в Сосново (Ленинградская область, Россия) (65 км)
Погода в Белогорке (Ленинградская область, Россия) (70 км)
Погода в Волосово (Ленинградская область, Россия) (75 км)
Погода в Озерках (Ленинградская область, Россия) (77 км)

Пояснения к столбцам:

Ветер - указаны скорость ветра в м/с - средняя за 10 мин, порывы в срок и между сроками (в фигурных скобках) и направление, откуда дует ветер: С - северный, СВ - северо-восточный, В - восточный, ЮВ - юго-восточный, Ю - южный, ЮЗ - юго-западный, З - западный, СЗ - северо-западный.
Видимость - горизонтальная дальность видимости в метрах или километрах. При видимости от 1 до 10 км при отсутствии осадков обычно наблюдается дымка, при ухудшении видимости до 1 км и менее - туман. В сухую погоду видимость может ухудшаться дымом, пылью или мглою.
Явления - указаны атмосферные явления, наблюдавшиеся в срок или в последний час перед сроком; фигурными скобками обозначены явления, наблюдавшиеся между сроками (за 1-3 часа до срока); квадратными скобками обозначены град или гололедные отложения с указанием их диаметра в мм.
Облачность - указаны через наклонную черту общая и нижняя облачность в баллах и высота нижней границы облаков в метрах; квадратными скобками обозначены формы облаков: Ci - перистые, Cs - перисто-слоистые, Cc - перисто-кучевые, Ac - высококучевые, As - высокослоистые, Sc - слоисто-кучевые, Ns - слоисто-дождевые, Cu - кучевые, Cb - кучево-дождевые. Подробнее классификацию облаков см. в Атласе облаков (PDF).
T - Температура воздуха - температура, измеренная на высоте 2 м над землей.
Td - Температура точки росы - температура, при понижении до которой содержащийся в воздухе водяной пар достигнет насыщения.
f - Относительная влажность воздуха - влажноcть воздуха, измеренная на высоте 2 м над землей.
Te - Эффективная температура - температура, которую ощущает одетый по сезону человек в тени. Характеристика душности погоды. При расчете учитывается влияние влажности воздуха и скорости ветра на теплоощущения человека.
Tes - Эффективная температура на солнце - температура, которую ощущает человек, с поправкой на солнечный нагрев. Характеристика знойности погоды. Зависит от высоты солнца над горизонтом, облачности и скорости ветра. Ночью, в пасмурную погоду, а также при ветре 12 м/с и более поправка равна нулю.
P - Атмосферное давление - приведенное к уровню моря атмосферное давление.
Po - Атмосферное давление - измеренное на уровне метеостанции атмосферное давление.
Tmin - Минимальная температура - минимум температуры воздуха на высоте 2 м над землей.
Tmax - Максимальная температура - максимум температуры воздуха на высоте 2 м над землей.
R - Количество осадков - Количество выпавших осадков за период времени, мм. При наведении курсора мыши на число - период времени, за который выпало указанное количество осадков.
R24 - Количество осадков - Количество выпавших осадков за 24 часа, мм.
S - Снежный покров - Высота снежного покрова, см. При наведении курсора мыши на число - состояние снежного покрова и степень покрытия местности в баллах.